Wind_Speed
11 16 10 8 7 10 5 9 12 6 10 13 7 19 9 22 22 13 15 16 14 16 4 7 17 18 16 14 12 7 11 7 2 5 4 8 7 6 6 7 5 5 5 3
14 18 17 17 6 11 9 12 11 4 12 14 17 8 7 18 15 23 16 10 14 9 9 13 7 14 13 12 11 10 9 11 10 7 3 4 6 5 6 1 2 2 4 5
17 14 16 16 16 13 5 19 11 12 5 4 2 8 2 11 9 15 21 15 17 16 10 12 13 5 18 13 13 15 4 8 10 12 8 9 6 2 2 4 8 7 3 3
19 20 15 9 12 25 6 6 8 11 9 6 2 2 5 9 6 12 21 21 19 20 14 8 9 9 12 14 13 10 6 9 11 14 10 8 7 4 2 4 6 5 2 4
20 20 13 7 2 22 5 6 10 12 19 5 10 9 11 14 10 13 17 24 16 22 17 12 10 7 5 9 13 6 6 8 11 13 10 8 7 3 2 1 3 4 4 7
23 15 9 15 6 9 4 5 9 17 21 7 6 5 14 17 8 14 13 19 18 19 17 13 11 9 11 9 6 4 9 11 13 13 9 6 6 5 2 2 5 8 9 12
15 13 18 5 3 7 11 8 10 13 4 6 4 4 5 7 3 10 8 7 11 14 15 13 13 13 13 7 4 1 10 13 11 11 11 9 6 3 0 3 6 10 12 12
16 14 14 13 12 9 12 13 6 7 3 2 6 4 9 5 5 7 8 12 11 10 11 13 15 16 10 5 2 5 10 12 12 11 12 10 7 4 2 3 6 9 10 10
10 15 13 8 19 11 8 7 13 21 14 12 5 10 9 11 10 15 13 17 15 12 14 16 16 14 8 7 6 9 8 10 13 13 12 10 6 3 1 3 6 9 9 9
20 21 17 14 11 11 7 10 11 12 5 3 4 8 19 8 10 23 26 13 18 18 15 15 12 11 10 10 9 11 8 10 11 12 12 10 5 4 2 4 8 10 13 13
15 15 19 8 6 7 8 7 9 5 4 8 4 5 3 6 5 15 17 15 13 12 4 2 3 8 11 11 10 11 10 11 11 11 12 11 8 6 3 3 5 7 11 13
19 12 13 15 11 10 12 9 12 9 6 13 9 5 12 7 15 7 22 20 11 4 7 5 2 4 10 11 11 13 12 10 9 8 12 13 9 6 4 2 1 3 6 8
13 8 12 12 9 11 9 7 8 12 12 12 7 6 8 17 4 5 19 20 15 8 13 11 6 3 6 10 12 13 14 14 11 8 6 9 11 8 7 5 4 3 6 8
8 11 10 18 10 16 16 9 7 2 7 13 9 7 5 8 5 6 9 22 15 16 14 12 10 7 8 11 13 16 16 16 14 10 10 9 10 11 11 8 7 8 8 9
16 16 11 14 16 13 7 10 6 7 6 7 13 6 4 16 16 9 7 15 10 22 12 15 14 15 12 14 16 17 19 17 15 15 12 13 13 13 14 11 10 10 10 12
13 16 16 15 11 9 11 10 6 11 10 10 6 13 12 12 11 12 10 7 11 16 15 20 21 23 20 18 17 18 21 20 18 18 15 16 12 14 16 15 14 12 12 14
12 14 13 11 9 10 7 9 14 11 10 13 5 10 7 12 11 13 12 9 7 13 21 24 26 29 26 24 22 19 22 23 20 19 18 16 14 15 15 17 16 16 16 16
16 17 16 11 6 2 9 13 8 3 4 4 4 6 15 9 10 9 8 8 11 13 17 26 29 31 32 31 28 25 26 27 25 23 17 15 14 14 16 16 17 18 19 18
13 13 9 8 9 7 10 12 6 5 6 3 4 5 6 4 4 7 8 9 12 12 14 18 27 30 35 37 38 31 30 30 27 23 20 17 15 16 17 17 18 20 19 18
12 5 7 7 3 2 8 4 4 10 2 9 11 10 11 15 17 17 15 17 24 26 22 19 29 32 39 41 42 37 35 33 28 24 20 17 16 12 14 14 16 18 18 17
16 15 9 9 7 10 10 12 3 6 2 6 12 13 15 15 17 20 21 19 22 23 23 24 22 31 39 38 23 10 40 33 27 21 19 11 13 11 9 11 13 14 16 18
22 17 6 10 16 3 10 8 3 5 7 10 13 16 20 22 23 29 32 29 29 26 20 20 24 29 30 35 56 34 30 27 16 15 12 10 6 12 12 12 13 16 19 22
16 10 10 5 5 4 2 4 6 11 15 15 18 18 23 26 25 23 27 29 29 24 19 18 23 28 33 30 31 35 42 18 5 13 13 11 17 13 10 12 15 17 20 22
5 14 14 10 11 8 6 9 10 10 15 20 23 26 25 22 15 17 24 25 28 30 26 21 23 23 26 21 17 17 20 13 14 10 13 10 9 6 11 14 17 18 18 16
5 3 7 9 11 12 15 14 13 10 17 21 18 22 14 11 11 18 23 28 23 22 19 16 18 15 14 14 12 3 6 9 10 6 4 3 5 9 13 16 18 16 14 14
2 6 9 11 13 15 16 18 19 18 20 23 22 17 13 15 12 18 16 19 21 18 19 18 18 13 12 3 9 14 12 11 10 6 4 6 9 12 13 12 11 13 13 14
Wind_Direction
220 235 217 292 321 246 222 198 197 321 343 265 201 149 305 250 199 231 214 218 214 228 228 215 205 221 236 249 235 233 243 245 246 289 342 133 98 80 116 86 79 99 103 93
239 247 264 219 289 213 219 230 221 326 22 132 102 136 23 135 203 228 241 243 224 261 281 271 225 231 254 269 274 257 238 245 250 231 239 206 144 158 163 181 17 23 352 344
229 233 271 242 244 178 277 267 281 338 339 241 128 59 99 268 289 217 223 251 246 264 264 276 267 239 241 263 289 275 265 219 229 218 238 212 187 280 17 356 347 67 86 17
241 239 289 257 247 202 128 258 275 44 50 82 33 255 291 306 260 195 193 225 252 249 269 268 274 247 261 256 278 291 241 219 210 205 196 214 197 224 297 70 58 76 70 359
244 240 219 225 173 187 24 71 134 61 25 342 42 64 74 312 228 198 191 202 249 246 260 269 284 294 263 253 255 322 208 196 198 203 201 198 169 173 103 100 7 12 338 322
260 273 216 222 216 241 249 293 27 9 340 341 88 109 193 186 182 179 187 203 229 234 245 248 255 271 271 283 293 313 204 179 176 187 191 163 165 163 179 340 339 325 316 304
263 268 203 237 277 246 268 304 60 325 14 246 245 260 280 212 214 178 146 172 205 213 225 232 246 256 268 279 344 202 204 181 187 186 180 170 178 172 179 318 323 315 314 320
246 265 229 239 218 245 282 320 308 182 180 344 322 233 275 176 134 187 180 178 195 196 215 235 255 269 259 247 159 178 174 181 184 176 167 168 175 177 195 329 339 330 329 324
271 254 264 275 243 233 236 269 318 93 85 111 279 310 271 202 237 204 184 181 178 204 218 239 258 263 225 211 167 171 177 164 163 163 168 171 173 171 175 8 10 2 4 0
256 283 275 264 227 220 214 279 323 315 157 202 5 31 286 221 260 163 175 184 178 194 217 249 257 241 202 203 177 172 162 163 167 175 185 184 180 167 129 46 49 47 49 46
255 265 282 318 189 220 303 299 240 240 210 159 144 226 197 228 237 170 203 212 196 207 231 17 231 200 200 206 185 182 166 177 183 196 198 199 189 180 161 101 73 60 50 41
226 260 277 283 240 279 280 250 277 277 214 247 195 231 257 119 152 219 206 196 202 265 308 309 327 194 203 208 195 196 195 188 199 223 219 213 205 192 193 177 69 23 22 22
185 209 274 300 279 202 224 227 273 293 322 336 350 146 154 198 196 160 197 195 194 262 297 284 290 256 212 210 204 208 211 217 224 234 197 205 216 200 212 224 242 296 326 346
196 210 252 252 266 326 208 213 226 162 290 315 344 110 69 197 179 157 181 202 296 210 268 282 289 275 235 219 211 210 221 224 229 227 221 215 219 210 223 232 253 279 301 322
221 231 253 260 287 307 339 236 253 201 257 259 292 37 19 155 169 227 188 231 214 190 273 292 305 292 257 229 219 212 217 227 228 227 227 220 225 218 227 233 253 274 295 312
212 211 242 282 284 311 333 332 286 289 285 284 228 304 270 221 281 273 174 188 224 246 266 288 298 290 283 256 233 227 222 227 223 226 226 232 226 225 235 238 249 269 288 298
184 212 237 270 272 292 280 286 273 275 278 289 350 25 303 213 172 152 160 160 225 261 261 264 278 288 285 288 261 243 238 236 230 231 230 231 230 231 238 243 251 262 274 288
192 210 229 254 282 336 257 316 356 69 29 75 54 80 90 115 159 188 210 247 269 284 270 262 271 280 281 285 282 254 244 238 237 232 235 236 233 240 251 257 260 265 272 282
195 186 240 234 262 269 282 327 340 19 3 353 269 234 219 131 276 269 261 280 289 286 270 263 262 270 275 275 277 268 249 237 233 237 235 241 239 241 251 257 271 275 277 292
201 233 218 189 237 254 322 23 288 276 36 317 296 297 275 266 279 276 277 279 285 284 288 299 263 260 262 252 261 251 249 236 227 228 229 233 251 271 278 282 276 278 292 297
243 264 263 274 248 241 266 286 261 232 220 298 285 299 305 316 317 312 313 305 293 299 305 304 265 255 243 231 61 89 242 223 211 214 221 232 253 262 274 268 275 279 291 301
228 223 221 265 264 192 327 295 234 167 221 255 278 285 292 298 298 305 303 299 297 306 309 297 282 266 256 271 288 304 311 183 201 211 217 210 236 281 282 264 267 286 301 308
198 197 196 265 257 244 336 322 223 236 250 271 285 292 289 295 301 301 300 301 299 296 295 280 277 276 285 297 302 341 90 78 247 237 164 225 280 285 256 269 281 295 299 300
142 203 213 185 159 167 205 257 261 259 296 297 297 290 286 283 289 279 275 280 298 295 291 292 287 292 300 303 324 327 327 301 289 196 193 238 222 252 278 285 290 297 301 299
203 227 198 208 235 254 257 249 255 279 298 308 293 281 295 279 243 258 264 284 295 301 305 309 313 318 327 321 318 31 78 100 141 149 175 238 262 272 281 289 293 290 295 306
10 238 217 220 234 246 261 270 273 285 299 296 290 287 271 257 258 257 265 286 297 315 317 330 336 315 322 339 116 122 123 113 120 149 204 238 256 274 279 284 281 287 295 296
Height
3180 3183 3183 3179 3181 3184 3184 3183 3181 3176 3174 3176 3183 3178 3179 3177 3180 3182 3182 3183 3186 3186 3189 3189 3189 3189 3190 3190 3191 3192 3192 3193 3195 3194 3195 3196 3195 3196 3200 3200 3202 3202 3202 3202
3179 3181 3181 3182 3180 3182 3181 3180 3176 3174 3173 3181 3178 3177 3178 3176 3180 3182 3182 3182 3182 3184 3184 3186 3188 3188 3188 3189 3188 3190 3191 3194 3195 3195 3195 3196 3197 3196 3197 3200 3202 3202 3204 3203
3175 3176 3175 3176 3179 3184 3186 3181 3180 3178 3178 3181 3181 3180 3181 3181 3179 3181 3182 3181 3180 3179 3181 3181 3183 3184 3184 3185 3186 3187 3188 3191 3192 3193 3195 3196 3196 3195 3198 3201 3203 3202 3203 3201
3172 3174 3174 3171 3172 3175 3185 3177 3177 3178 3177 3177 3177 3176 3176 3176 3174 3175 3178 3179 3178 3178 3178 3180 3181 3182 3183 3186 3186 3185 3186 3188 3189 3191 3193 3196 3196 3198 3200 3201 3202 3199 3200 3200
3167 3170 3172 3171 3175 3175 3173 3175 3178 3176 3176 3180 3176 3177 3177 3180 3171 3171 3173 3174 3176 3175 3177 3178 3180 3181 3182 3184 3184 3184 3185 3185 3187 3189 3192 3194 3196 3197 3198 3200 3201 3200 3200 3198
3164 3168 3170 3170 3172 3174 3174 3177 3174 3176 3175 3173 3175 3177 3177 3174 3171 3170 3171 3173 3174 3175 3175 3177 3179 3179 3179 3180 3180 3182 3183 3184 3185 3188 3190 3193 3195 3197 3199 3199 3200 3198 3198 3196
3162 3163 3172 3170 3170 3171 3172 3172 3178 3186 3179 3181 3175 3175 3172 3170 3169 3171 3172 3175 3175 3176 3176 3177 3177 3178 3178 3177 3177 3179 3181 3183 3185 3187 3190 3192 3194 3196 3197 3199 3199 3198 3195 3193
3162 3163 3164 3165 3167 3170 3170 3172 3172 3178 3181 3179 3178 3174 3170 3169 3171 3172 3175 3175 3175 3175 3176 3176 3177 3177 3177 3176 3178 3179 3180 3182 3184 3186 3189 3192 3193 3195 3196 3196 3196 3194 3192 3190
3160 3161 3161 3164 3165 3167 3169 3171 3172 3173 3176 3174 3174 3172 3170 3171 3172 3169 3176 3175 3175 3174 3176 3176 3176 3177 3177 3177 3178 3180 3180 3181 3184 3186 3189 3191 3193 3194 3195 3194 3193 3191 3190 3187
3158 3161 3160 3159 3161 3164 3166 3169 3169 3168 3177 3177 3176 3172 3168 3169 3169 3169 3171 3172 3173 3171 3171 3173 3174 3175 3176 3177 3178 3179 3180 3182 3184 3186 3188 3190 3192 3193 3193 3193 3192 3191 3190 3189
3157 3159 3157 3159 3159 3161 3164 3166 3166 3166 3166 3168 3174 3171 3163 3161 3161 3169 3170 3170 3172 3173 3174 3172 3171 3172 3174 3175 3177 3178 3179 3181 3183 3184 3186 3188 3189 3191 3192 3192 3192 3192 3190 3189
3154 3155 3156 3157 3157 3158 3160 3162 3163 3163 3164 3160 3162 3168 3164 3163 3160 3162 3164 3167 3170 3171 3171 3171 3170 3170 3171 3173 3175 3177 3177 3179 3181 3183 3184 3186 3188 3189 3190 3191 3191 3192 3191 3190
3151 3153 3156 3155 3156 3156 3156 3159 3160 3160 3160 3160 3160 3163 3161 3162 3162 3163 3165 3166 3168 3169 3170 3170 3169 3169 3169 3170 3173 3174 3175 3176 3178 3180 3182 3184 3185 3187 3188 3189 3190 3190 3190 3189
3150 3153 3155 3155 3154 3156 3155 3156 3156 3158 3161 3159 3159 3160 3158 3158 3159 3164 3163 3162 3163 3164 3168 3166 3165 3165 3166 3167 3168 3170 3171 3172 3173 3174 3177 3178 3180 3183 3184 3185 3186 3186 3186 3186
3151 3153 3153 3153 3154 3154 3154 3155 3155 3155 3158 3159 3158 3159 3158 3158 3158 3160 3160 3157 3158 3159 3162 3161 3162 3161 3162 3162 3162 3163 3164 3165 3167 3169 3171 3173 3173 3176 3177 3178 3180 3181 3182 3182
3147 3150 3153 3151 3151 3152 3152 3153 3153 3154 3155 3155 3155 3155 3155 3155 3156 3156 3158 3157 3158 3158 3157 3157 3157 3157 3158 3158 3159 3160 3160 3160 3162 3163 3165 3166 3169 3172 3173 3173 3174 3174 3175 3176
3145 3148 3150 3151 3151 3151 3154 3155 3154 3153 3153 3153 3153 3153 3151 3151 3155 3156 3157 3157 3156 3154 3154 3153 3152 3154 3156 3156 3158 3161 3161 3161 3161 3161 3163 3164 3166 3168 3168 3169 3169 3168 3168 3169
3142 3146 3148 3150 3151 3152 3153 3152 3151 3150 3149 3150 3151 3151 3152 3154 3155 3154 3154 3154 3154 3154 3152 3150 3151 3151 3152 3153 3154 3157 3158 3159 3160 3160 3161 3162 3163 3164 3166 3166 3164 3163 3163 3163
3140 3143 3145 3146 3149 3152 3151 3150 3150 3149 3149 3148 3147 3149 3152 3152 3151 3151 3150 3150 3149 3149 3150 3148 3145 3145 3146 3145 3146 3148 3151 3152 3154 3158 3160 3162 3160 3159 3162 3163 3164 3164 3160 3158
3136 3140 3143 3144 3147 3149 3150 3148 3149 3149 3148 3147 3146 3147 3148 3149 3147 3145 3146 3145 3142 3142 3144 3143 3139 3138 3140 3136 3134 3137 3137 3141 3146 3148 3155 3156 3158 3156 3157 3157 3159 3159 3159 3155
3134 3136 3139 3141 3143 3146 3144 3143 3146 3149 3152 3146 3145 3146 3145 3145 3144 3139 3140 3140 3137 3135 3136 3134 3131 3128 3130 3109 3067 3095 3128 3126 3130 3140 3150 3149 3152 3150 3150 3153 3154 3155 3153 3150
3133 3135 3137 3139 3140 3141 3141 3141 3144 3145 3144 3143 3143 3143 3141 3141 3141 3136 3135 3136 3133 3133 3131 3130 3126 3122 3124 3116 3103 3108 3083 3101 3127 3134 3138 3142 3146 3147 3147 3148 3149 3149 3148 3145
3130 3133 3137 3138 3140 3140 3138 3139 3140 3141 3141 3142 3141 3139 3137 3137 3137 3134 3130 3129 3124 3122 3124 3126 3123 3121 3122 3121 3108 3102 3088 3114 3120 3125 3132 3135 3139 3141 3144 3142 3143 3143 3142 3140
3127 3129 3132 3136 3137 3137 3138 3135 3137 3139 3141 3139 3138 3134 3133 3132 3133 3132 3125 3121 3118 3114 3119 3118 3116 3115 3111 3112 3112 3111 3110 3115 3118 3123 3125 3129 3133 3134 3139 3138 3139 3138 3137 3135
3127 3129 3128 3130 3132 3132 3132 3133 3134 3137 3136 3134 3132 3127 3127 3128 3127 3125 3122 3122 3119 3109 3110 3113 3110 3113 3111 3112 3112 3111 3109 3109 3114 3118 3122 3127 3128 3131 3131 3132 3133 3133 3131 3130
3123 3123 3124 3125 3128 3129 3130 3130 3130 3133 3131 3128 3125 3124 3125 3123 3123 3122 3121 3121 3115 3112 3108 3113 3115 3109 3112 3109 3108 3110 3111 3112 3115 3119 3124 3126 3125 3127 3126 3128 3129 3130 3127 3125